[[{"header":{"parameterUnit":"m.s-1","parameterCategory":1,"la1":30.2991,"la2":30.254,"lo1":-89.0895,"lo2":-89.0444,"dy":0.0017,"dx":0.0017,"nx":28,"ny":28,"refTime":"2024-07-14T09:00:00:Z","depth":0,"parameterNumber":2,"parameterNumberName":"U-component_of_WINDS"},"data":[0,0,0,0,0,0,0,0,0,0,0,0,0,0,0,0,0,0,0,0,0,0,0,0,0,0,0,0,0,0,0,0,0,0,0,0,0,0,0,0,0,0,0,0,0,0,0,0,0,0,0,0,0,0,0,0,0,0,2.1913,2.1914,0,2.198,2.1981,2.1981,2.1903,2.19,2.1897,2.1894,2.1961,2.1965,2.197,0,0,0,0,0,0,0,0,0,0,0,0,0,2.1716,2.172,2.1913,2.1914,2.1915,2.198,2.1981,2.1981,2.1903,2.19,2.1896,2.1893,2.196,2.1965,2.197,0,0,0,0,0,0,0,0,0,0,0,0,0,2.1794,2.1721,2.1913,2.1884,2.1882,2.1979,2.1981,2.1982,2.1904,2.1899,2.1895,2.1891,2.1958,2.1964,2.1971,2.2101,0,0,2.1992,2.1995,0,0,0,0,0,0,0,0,2.179,2.1801,2.1887,2.1886,2.1884,2.1928,2.1935,2.2022,2.1905,2.1895,2.1894,2.1889,2.1954,2.1961,2.1983,2.2104,2.2107,2.1992,2.1996,2.1999,2.2001,0,0,0,0,0,0,0,2.1784,2.1798,2.194,2.1889,2.1887,2.1866,2.1872,2.1951,2.1948,2.1896,2.189,2.1899,2.1952,2.1976,2.1984,2.2108,2.1992,2.1998,2.2002,2.2005,2.2335,2.2339,0,0,0,0,0,0,2.1783,2.1794,2.1937,2.1942,2.1825,2.1873,2.188,2.1919,2.1947,2.1947,2.1903,2.1895,2.1967,2.1976,2.1986,2.2137,2.1999,2.2006,2.201,2.233,2.2336,2.2341,0,0,0,0,0,0,2.1779,2.1796,2.1935,2.1866,2.1882,2.1881,2.1925,2.1922,2.1946,2.1953,2.1951,2.1929,2.1964,2.1976,2.2072,2.2138,2.2009,2.2015,2.2325,2.2332,2.2339,2.2441,0,0,0,0,0,0,2.1773,2.1795,2.1845,2.1868,2.1886,2.2021,2.1929,2.1927,2.1958,2.1949,2.1976,2.1977,2.1961,2.2062,2.2079,2.2145,2.202,2.2319,2.2328,2.2336,2.2432,2.2451,2.2467,0,0,0,0,0,2.1767,2.1872,2.1848,2.1866,2.1949,2.2025,2.2036,2.2016,2.1964,2.2014,2.2017,2.1976,2.2129,2.2073,2.2091,2.216,2.2314,2.2325,2.2336,2.2424,2.2447,2.2467,0,0,0,0,0,0,2.1858,2.1875,2.1848,2.1965,2.1994,2.2012,2.2074,2.2042,2.2086,2.2076,2.2049,2.2056,2.2157,2.2168,2.2106,2.2285,2.2213,2.2227,2.2274,2.2296,2.2313,2.2308,2.2026,0,0,0,0,0,2.1891,2.1952,2.1964,2.2065,2.2081,2.2075,2.2108,2.209,2.2119,2.2131,2.2142,2.2171,2.2225,2.2261,2.2312,2.2434,2.2437,2.249,2.2508,2.2522,2.2534,2.2596,2.2619,2.2376,2.2376,2.2376,0,0,2.1961,2.1978,2.2018,2.2084,2.2104,2.2167,2.2086,2.2157,2.2202,2.2142,2.2232,2.2241,2.2272,2.238,2.2429,2.2393,2.2602,2.2536,2.2547,2.2551,2.261,2.2633,2.2653,2.2383,2.2382,2.2381,0,0,2.212,2.2141,2.2225,2.2247,2.2279,2.2274,2.2295,2.2317,2.2321,2.2411,2.2366,2.2419,2.2514,2.2537,2.2561,2.2727,2.2689,2.2744,2.2835,2.2896,2.2915,2.2932,2.2988,2.3009,2.2757,2.2757,2.2757,0,2.2203,2.2296,2.2273,2.2346,2.2375,2.2323,2.2408,2.243,2.2477,2.2498,2.2457,2.2572,2.259,2.2701,2.2741,2.2764,2.2784,2.274,2.2915,2.2931,2.2946,2.3,2.3021,2.2763,2.2762,2.2762,2.2761,0,2.2395,2.246,2.2524,2.257,2.2606,2.2685,2.2673,2.2713,2.2691,2.269,2.2781,2.28,2.2852,2.2878,2.2858,2.2986,2.2962,2.2919,2.2845,2.2976,2.3026,2.3046,2.2772,2.277,2.2768,2.2766,0,0,2.2613,2.2644,2.2668,2.2686,2.2717,2.2766,2.2842,2.2892,2.2925,2.2959,2.302,2.31,2.3059,2.3087,2.3069,2.3123,2.3249,2.3072,2.3072,2.3102,2.3387,2.3418,2.3442,2.3225,2.3229,2.3232,2.3384,0,2.277,2.29,2.2881,2.3006,2.3064,2.3015,2.308,2.3105,2.3105,2.3154,2.3154,2.3211,2.3154,2.3169,2.3221,2.3223,2.3305,2.3212,2.3279,2.3282,2.3271,2.3469,2.3502,2.3645,2.3403,2.3407,2.3409,0,2.297,2.301,2.3141,2.316,2.3183,2.3242,2.3285,2.3334,2.336,2.3356,2.3386,2.3358,2.3431,2.3358,2.3457,2.3394,2.342,2.3426,2.343,2.3434,2.3352,2.3475,2.369,2.3711,2.344,2.3437,2.3435,0,2.3112,2.3199,2.3288,2.3306,2.3331,2.3373,2.3385,2.3408,2.3438,2.3476,2.3495,2.3542,2.3567,2.3602,2.3587,2.3535,2.3688,2.3614,2.3685,2.3686,2.3718,2.3716,2.3938,2.374,2.374,2.3739,2.3739,0,2.3288,2.3369,2.3352,2.3406,2.3495,2.3471,2.356,2.3566,2.3586,2.3639,2.36,2.3651,2.3628,2.3677,2.3666,2.3748,2.376,2.3758,2.3754,2.376,2.376,2.3776,2.3764,2.3745,2.3744,2.3742,2.3741,0,2.3462,2.3453,2.3546,2.3562,2.3568,2.3632,2.3645,2.3695,2.3692,2.376,2.3774,2.377,2.3825,2.3814,2.3875,2.3867,2.3969,2.3954,2.396,2.3956,2.4027,2.4019,2.4264,2.4294,2.4079,2.4081,2.4083,0,2.3573,2.3634,2.3656,2.3689,2.3704,2.3758,2.3789,2.3768,2.3801,2.3835,2.3881,2.3932,2.3972,2.4063,2.4064,2.411,2.4094,2.4176,2.41,2.4104,2.4092,2.4087,2.4092,2.4191,2.4193,2.4195,2.4197,0,2.3771,2.3763,2.3809,2.3854,2.3891,2.3925,2.3955,2.3984,2.3966,2.4005,2.4061,2.4092,2.4153,2.4204,2.4246,2.4258,2.4224,2.4221,2.424,2.4246,2.4246,2.4244,2.3999,2.4215,2.4213,2.4212,2.4211,2.421,2.3915,2.3966,2.3988,2.404,2.406,2.4089,2.4136,2.4138,2.4185,2.4233,2.4218,2.4281,2.4303,2.4356,2.4373,2.442,2.4389,2.4417,2.4423,2.443,2.4437,2.424,2.4429,2.4428,2.4427,2.4427,2.4427,0,2.4108,2.412,2.4168,2.421,2.4251,2.4216,2.4247,2.4282,2.4338,2.4363,2.4402,2.4465,2.4514,2.4519,2.4565,2.4602,2.4587,2.4614,2.461,2.4613,2.4464,2.4442,2.4625,2.4625,2.4625,2.4625,2.4625,2.4625,2.4213,2.4296,2.4291,2.4383,2.4394,2.4455,2.4475,2.4501,2.4519,2.4591,2.4632,2.4635,2.4651,2.4697,2.4739,2.4739,2.4757,2.4789,2.4783,2.4644,2.4624,2.4605,2.4584,2.4794,2.4794,2.4928,2.4929,2.493]},{"header":{"parameterUnit":"m.s-1","parameterCategory":1,"la1":30.2991,"la2":30.254,"lo1":-89.0895,"lo2":-89.0444,"dy":0.0017,"dx":0.0017,"nx":28,"ny":28,"refTime":"2024-07-14T09:00:00:Z","depth":0,"parameterNumber":3,"parameterNumberName":"V-component_of_WINDS"},"data":[0,0,0,0,0,0,0,0,0,0,0,0,0,0,0,0,0,0,0,0,0,0,0,0,0,0,0,0,0,0,0,0,0,0,0,0,0,0,0,0,0,0,0,0,0,0,0,0,0,0,0,0,0,0,0,0,0,0,1.6296,1.6296,0,1.6325,1.6325,1.6326,1.6286,1.6284,1.6283,1.6282,1.6312,1.6314,1.6316,0,0,0,0,0,0,0,0,0,0,0,0,0,1.6203,1.6205,1.6296,1.6296,1.6296,1.6325,1.6325,1.6326,1.6286,1.6284,1.6283,1.6281,1.6311,1.6314,1.6316,0,0,0,0,0,0,0,0,0,0,0,0,0,1.6239,1.6206,1.6296,1.628,1.6279,1.6325,1.6325,1.6326,1.6286,1.6284,1.6282,1.628,1.631,1.6313,1.6316,1.6379,0,0,1.6326,1.6328,0,0,0,0,0,0,0,0,1.6237,1.6243,1.6282,1.6281,1.628,1.63,1.6304,1.6344,1.6287,1.6284,1.6282,1.6279,1.6309,1.6313,1.6323,1.638,1.6382,1.6326,1.6328,1.633,1.6331,0,0,0,0,0,0,0,1.6235,1.6241,1.6307,1.6283,1.6281,1.6271,1.6274,1.6311,1.6308,1.6284,1.6281,1.6285,1.6308,1.632,1.6323,1.6382,1.6326,1.6329,1.6331,1.6332,1.6489,1.6491,0,0,0,0,0,0,1.6234,1.6239,1.6306,1.6308,1.6253,1.6274,1.6277,1.6295,1.6308,1.6307,1.6287,1.6283,1.6315,1.6319,1.6324,1.6396,1.633,1.6333,1.6335,1.6487,1.6489,1.6492,0,0,0,0,0,0,1.6232,1.6241,1.6305,1.6273,1.628,1.6278,1.6299,1.6297,1.6308,1.631,1.6309,1.6299,1.6314,1.632,1.6365,1.6396,1.6334,1.6337,1.6484,1.6487,1.6491,1.6541,0,0,0,0,0,0,1.623,1.624,1.6265,1.6274,1.6282,1.6346,1.6301,1.6299,1.6314,1.6309,1.6321,1.6321,1.6313,1.636,1.6368,1.64,1.634,1.6481,1.6486,1.649,1.6537,1.6546,1.6554,0,0,0,0,0,1.6227,1.6279,1.6266,1.6275,1.6313,1.6348,1.6353,1.6342,1.6317,1.6341,1.6341,1.6321,1.6392,1.6365,1.6374,1.6407,1.6479,1.6484,1.6489,1.6533,1.6544,1.6553,0,0,0,0,0,0,1.6275,1.628,1.6266,1.6322,1.6335,1.6341,1.6372,1.6355,1.6375,1.637,1.6356,1.6359,1.6407,1.6411,1.6382,1.6466,1.6431,1.6438,1.6461,1.6472,1.648,1.6478,1.6342,0,0,0,0,0,1.6291,1.632,1.6323,1.6372,1.6379,1.6374,1.6389,1.638,1.6392,1.6398,1.6401,1.6414,1.6439,1.6456,1.6479,1.6537,1.6538,1.6564,1.6572,1.6579,1.6585,1.6613,1.6624,1.6508,1.6508,1.6508,0,0,1.6327,1.6333,1.6353,1.6382,1.6391,1.6419,1.6379,1.6412,1.6433,1.6403,1.6445,1.6448,1.6461,1.6512,1.6535,1.6518,1.6617,1.6586,1.6591,1.6593,1.662,1.6631,1.664,1.6512,1.6511,1.6511,0,0,1.6406,1.6415,1.6455,1.6464,1.6477,1.6473,1.6483,1.6491,1.6492,1.6534,1.651,1.6535,1.6579,1.6588,1.6599,1.6678,1.6659,1.6686,1.673,1.6758,1.6767,1.6775,1.6801,1.6811,1.6692,1.6692,1.6692,0,1.6449,1.6492,1.6478,1.6512,1.6525,1.6497,1.6537,1.6546,1.6567,1.6575,1.6556,1.6608,1.6615,1.6667,1.6686,1.6696,1.6705,1.6684,1.6767,1.6775,1.6782,1.6807,1.6817,1.6695,1.6695,1.6694,1.6694,0,1.6542,1.6572,1.6603,1.6622,1.6638,1.6675,1.6666,1.6684,1.6672,1.6669,1.6711,1.6718,1.6741,1.6753,1.6742,1.6802,1.679,1.6769,1.6733,1.6796,1.6819,1.6829,1.6699,1.6698,1.6697,1.6697,0,0,1.6654,1.6662,1.6674,1.6681,1.6692,1.6714,1.6749,1.677,1.6784,1.6799,1.6826,1.6862,1.6842,1.6854,1.6844,1.6868,1.6927,1.6843,1.6843,1.6857,1.6991,1.7006,1.7018,1.6915,1.6917,1.6918,1.6989,0,1.6732,1.6791,1.6778,1.6836,1.6862,1.6834,1.6864,1.6873,1.6871,1.6893,1.689,1.6915,1.6887,1.6894,1.6917,1.6915,1.6954,1.691,1.6939,1.694,1.6936,1.703,1.7047,1.7114,1.6998,1.7,1.7001,0,1.6831,1.6846,1.6906,1.691,1.692,1.6947,1.6964,1.6985,1.6994,1.6991,1.7003,1.6987,1.702,1.6984,1.7028,1.6998,1.7009,1.701,1.7012,1.7014,1.6974,1.7033,1.7135,1.7145,1.7016,1.7014,1.7013,0,1.6903,1.694,1.698,1.6987,1.6993,1.7012,1.7015,1.7022,1.7034,1.7049,1.7057,1.7076,1.7086,1.71,1.709,1.7065,1.7135,1.7098,1.7132,1.7132,1.7147,1.7146,1.7252,1.7156,1.7156,1.7156,1.7156,0,1.6991,1.7028,1.7012,1.7037,1.7077,1.7061,1.7101,1.7101,1.7107,1.713,1.7108,1.713,1.7115,1.7136,1.7128,1.7164,1.7169,1.7166,1.7164,1.7168,1.7168,1.7174,1.7169,1.7159,1.7158,1.7158,1.7157,0,1.7079,1.707,1.7111,1.7112,1.7113,1.7143,1.7143,1.7165,1.7161,1.719,1.7196,1.7189,1.7212,1.7202,1.7227,1.7221,1.7267,1.7259,1.7264,1.7261,1.7294,1.7291,1.7406,1.742,1.7317,1.7318,1.7319,0,1.7135,1.7163,1.7166,1.7179,1.7183,1.7206,1.7218,1.7203,1.7216,1.7227,1.7247,1.7268,1.7283,1.7321,1.7317,1.7335,1.7326,1.7366,1.7329,1.7331,1.7325,1.7323,1.7325,1.7373,1.7374,1.7375,1.7376,0,1.7235,1.7228,1.7246,1.7262,1.7276,1.7288,1.7298,1.7311,1.7296,1.7312,1.7334,1.7346,1.7369,1.7389,1.7405,1.7407,1.7389,1.7387,1.7395,1.74,1.7401,1.7399,1.7282,1.7385,1.7384,1.7383,1.7383,1.7382,1.7307,1.7329,1.7334,1.7354,1.7359,1.7368,1.7388,1.7385,1.7403,1.742,1.741,1.7436,1.7441,1.746,1.7465,1.7484,1.7468,1.7481,1.7484,1.7487,1.749,1.7398,1.7487,1.7487,1.7486,1.7486,1.7486,0,1.7404,1.7405,1.7423,1.7436,1.7452,1.7432,1.7441,1.7455,1.7477,1.7484,1.7499,1.7523,1.7542,1.7539,1.7556,1.7571,1.7563,1.7576,1.7574,1.7575,1.7504,1.7495,1.7582,1.7582,1.7582,1.7582,1.7582,1.7582,1.7456,1.7491,1.7484,1.7521,1.7522,1.7546,1.7552,1.756,1.7565,1.7593,1.7607,1.7605,1.7607,1.7624,1.7639,1.7638,1.7644,1.766,1.7656,1.759,1.758,1.7571,1.7562,1.7662,1.7662,1.7724,1.7725,1.7725]}]]